This demonstration page uses our WeatherBlox Daily Observations layout. Learn more.

Left ArrowRight Arrow

Hourly Observations for August 6, 2022

Temp ( °F °C ) Dew Point ( °F °C ) Humidity (%) Winds ( mph kmh ) Pressure ( in mb ) Visibility ( mi km ) Precip ( " mm )
12:15 am 00:15 Clear 77 25.1 72 22 83 83 SE 9 15 29.78 1008 10 16 0.00 0.00
12:35 am 00:35 Clear 77 25 71 21.6 81 81 SE 8 13 29.79 1009 10 16 0.00 0.00
12:55 am 00:55 Clear 76 24.7 70 21.2 81 81 SE 8 13 29.79 1009 10 16 0.00 0.00
1:15 am 01:15 Clear 76 24.2 69 20.8 81 81 SE 7 11 29.78 1009 10 16 0.00 0.00
1:35 am 01:35 Clear 75 23.9 69 20.5 81 81 SSE 7 11 29.79 1009 10 16 0.00 0.00
1:55 am 01:55 Clear 75 23.8 68 20.1 80 80 SSE 8 13 29.78 1008 10 16 0.00 0.00
2:15 am 02:15 Clear 74 23.6 68 20 80 80 SE 7 11 29.79 1009 10 16 0.00 0.00
2:35 am 02:35 Clear 74 23.1 68 20 83 83 SE 7 11 29.78 1009 10 16 0.00 0.00
2:55 am 02:55 Clear 73 22.6 68 20 85 85 SE 7 11 29.78 1008 10 16 0.00 0.00
3:15 am 03:15 Clear 73 22.7 67 19.7 83 83 SSE 7 11 29.78 1008 10 16 0.00 0.00
3:35 am 03:35 Clear 74 23.3 67 19.5 79 79 SSE 8 13 29.77 1008 10 16 0.00 0.00
3:55 am 03:55 Clear 74 23.5 67 19.3 77 77 SSE 9 15 29.77 1008 10 16 0.00 0.00
4:15 am 04:15 Clear 74 23.3 67 19.2 78 78 SSE 9 15 29.76 1008 10 16 0.00 0.00
4:35 am 04:35 Clear 74 23.5 66 19 76 76 SSE 9 15 29.76 1008 10 16 0.00 0.00
4:55 am 04:55 Clear 74 23.3 66 19 77 77 SSE 8 13 29.77 1008 10 16 0.00 0.00
5:15 am 05:15 Clear 73 23 66 19.1 79 79 SSE 8 13 29.77 1008 10 16 0.00 0.00
5:35 am 05:35 Clear 74 23.1 66 19 78 78 SSE 10 17 29.76 1008 10 16 0.00 0.00
5:55 am 05:55 Clear 73 23 66 19 78 78 SSE 9 15 29.76 1008 10 16 0.00 0.00
6:15 am 06:15 Clear 73 22.5 66 19 81 81 SSE 7 11 29.78 1008 10 16 0.00 0.00
6:35 am 06:35 Clear 71 21.9 66 19 84 84 S 3 6 29.79 1009 10 16 0.00 0.00
6:55 am 06:55 Sunny 71 21.5 66 19.1 86 86 S 6 9 29.80 1009 10 16 0.00 0.00
7:15 am 07:15 Sunny 71 21.5 66 19.1 86 86 S 7 11 29.80 1009 10 16 0.00 0.00
7:35 am 07:35 Sunny 71 21.9 67 19.2 85 85 SSE 6 9 29.79 1009 10 16 0.00 0.00
7:55 am 07:55 Sunny 73 22.5 67 19.6 84 84 SSE 6 9 29.79 1009 10 16 0.00 0.00
8:15 am 08:15 Sunny 74 23.6 67 19.6 78 78 Calm 29.79 1009 10 16 0.00 0.00
8:35 am 08:35 Sunny 76 24.6 68 19.8 75 75 S 6 9 29.78 1008 10 16 0.00 0.00
8:55 am 08:55 Sunny 78 25.5 69 20.3 73 73 S 7 11 29.78 1009 10 16 0.00 0.00
9:15 am 09:15 Sunny 79 26 69 20.3 71 71 S 7 11 29.78 1008 10 16 0.00 0.00
9:35 am 09:35 Sunny 82 27.6 68 19.8 63 63 Calm 29.78 1008 10 16 0.00 0.00
9:55 am 09:55 Sunny 83 28.3 66 19.1 57 57 Calm 29.78 1008 10 16 0.00 0.00
10:15 am 10:15 Sunny 83 28.2 68 20.1 61 61 Calm 29.78 1009 10 16 0.00 0.00
10:35 am 10:35 Sunny 84 28.8 69 20.5 61 61 SSE 3 6 29.78 1008 10 16 0.00 0.00
10:55 am 10:55 Sunny 83 28.5 71 21.7 67 67 ENE 5 7 29.78 1008 10 16 0.00 0.00
11:15 am 11:15 Sunny 84 29 72 22.1 66 66 ENE 6 9 29.79 1009 10 16 0.00 0.00
11:35 am 11:35 Sunny 85 29.4 71 21.5 63 63 E 6 9 29.78 1009 10 16 0.00 0.00
11:55 am 11:55 Sunny 86 30 71 21.8 61 61 E 6 9 29.78 1008 10 16 0.00 0.00
12:15 pm 12:15 Sunny 86 30.1 73 22.5 64 64 E 7 11 29.77 1008 10 16 0.00 0.00
12:35 pm 12:35 Sunny 88 30.9 73 22.6 61 61 E 7 11 29.77 1008 10 16 0.00 0.00
12:55 pm 12:55 Sunny 88 31.2 73 22.5 60 60 ESE 8 13 29.76 1008 10 16 0.00 0.00
1:15 pm 13:15 Sunny 89 31.6 72 22 57 57 ENE 6 9 29.77 1008 10 16 0.00 0.00
1:35 pm 13:35 Sunny 89 31.9 73 22.6 58 58 ENE 9 15 29.76 1008 10 16 0.00 0.00
1:55 pm 13:55 Sunny 91 32.7 70 21.1 50 50 E 9 15 29.75 1007 10 16 0.00 0.00
2:15 pm 14:15 Sunny 91 33 71 21.9 52 52 E 10 17 29.75 1007 10 16 0.00 0.00
2:35 pm 14:35 Sunny 92 33.3 72 22.4 53 53 E 10 17 29.73 1007 10 16 0.00 0.00
2:55 pm 14:55 Sunny 92 33.3 73 22.8 54 54 ENE 13 20 29.72 1007 10 16 0.00 0.00
3:15 pm 15:15 Sunny 92 33.4 75 23.9 57 57 ENE 13 20 29.72 1007 10 16 0.00 0.00
3:35 pm 15:35 Sunny 92 33.5 75 24.1 58 58 ENE 9 15 29.71 1006 10 16 0.00 0.00
3:55 pm 15:55 Sunny 91 33 76 24.5 61 61 NE 14 22 29.72 1006 10 16 0.00 0.00
4:15 pm 16:15 Sunny 92 33.3 75 24.1 59 59 ENE 13 20 29.70 1006 10 16 0.00 0.00
4:35 pm 16:35 Sunny 90 32.4 75 24.1 62 62 NE 15 24 29.70 1006 10 16 0.00 0.00
4:55 pm 16:55 Sunny 93 33.8 78 25.4 61 61 NE 10 17 29.69 1005 10 16 0.00 0.00
5:15 pm 17:15 Sunny 93 34 77 24.9 59 59 ENE 12 19 29.68 1005 10 16 0.00 0.00
5:35 pm 17:35 Sunny 92 33.1 75 23.8 58 58 ENE 10 17 29.68 1005 10 16 0.00 0.00
5:55 pm 17:55 Partly Cloudy 89 31.4 76 24.3 66 66 NE 10 17 29.70 1006 10 16 0.00 0.00
6:15 pm 18:15 Mostly Cloudy 88 31 75 24.1 67 67 NE 10 17 29.70 1006 10 16 0.00 0.00
6:35 pm 18:35 Partly Cloudy 88 31 76 24.2 67 67 NE 8 13 29.70 1006 10 16 0.00 0.00
6:55 pm 18:55 Mostly Cloudy 90 32 76 24.2 63 63 NE 15 24 29.69 1006 10 16 0.00 0.00
7:15 pm 19:15 Partly Cloudy 89 31.7 76 24.2 64 64 ENE 10 17 29.70 1006 10 16 0.00 0.00
7:35 pm 19:35 Partly Cloudy 88 31.2 74 23.2 62 62 NE 7 11 29.70 1006 10 16 0.00 0.00
7:55 pm 19:55 Cloudy 86 30 75 24.1 71 71 NNE 9 15 29.71 1006 10 16 0.00 0.00
8:15 pm 20:15 Mostly Cloudy 85 29.2 75 23.9 73 73 NE 10 17 29.71 1006 10 16 0.00 0.00
8:35 pm 20:35 Mostly Cloudy 83 28.5 75 24 77 77 NNE 9 15 29.74 1007 10 16 0.00 0.00
8:55 pm 20:55 Cloudy with Rain 83 28.2 74 23.3 75 75 NNE 14 22 29.74 1007 7 11 0.03 0.76
9:15 pm 21:15 Partly Cloudy 81 27.2 76 24.3 84 84 NE 13 20 29.76 1008 10 16 0.00 0.00
9:35 pm 21:35 Partly Cloudy with Nearby Thunderstorms 78 25.6 74 23.3 87 87 NNE 13 20 29.79 1009 10 16 0.00 0.00
9:55 pm 21:55 Clear 77 25 74 23.1 89 89 NE 10 17 29.82 1010 10 16 0.00 0.00
10:15 pm 22:15 Partly Cloudy 76 24.3 72 22.3 89 89 NE 13 20 29.83 1010 10 16 0.00 0.00
10:35 pm 22:35 Partly Cloudy 74 23.6 71 21.9 90 90 NE 13 20 29.85 1011 10 16 0.00 0.00
10:55 pm 22:55 Partly Cloudy 74 23.1 71 21.5 91 91 ENE 15 24 29.85 1011 10 16 0.00 0.00
11:15 pm 23:15 Partly Cloudy 73 22.8 71 21.5 92 92 ENE 13 20 29.85 1011 10 16 0.00 0.00
11:35 pm 23:35 Clear 73 22.7 71 21.5 93 93 ENE 13 20 29.85 1011 10 16 0.00 0.00
11:55 pm 23:55 Clear 73 22.5 71 21.5 94 94 ENE 9 15 29.84 1010 10 16 0.00 0.00

Powered by AerisWeather